Time,TemperatureF,DewpointF,PressureIn,WindDirection,WindDirectionDegrees,WindSpeedMPH,WindSpeedGustMPH,Humidity,HourlyPrecipIn,Conditions,Clouds,dailyrainin,SoftwareType,DateUTC
2013-01-19 00:03:00,45.0,25.4,30.22,SW,214,6.3,6.3,46,0.00,,---,0.00,VWS V14.01,2013-01-19 06:03:00,
2013-01-19 00:08:00,44.6,25.1,30.22,SSE,167,6.3,6.3,46,0.00,,---,0.00,VWS V14.01,2013-01-19 06:08:00,
2013-01-19 00:13:00,44.6,25.1,30.22,South,184,6.3,6.3,46,0.00,,---,0.00,VWS V14.01,2013-01-19 06:13:00,
2013-01-19 00:18:00,44.2,25.3,30.22,SSW,194,5.4,5.4,47,0.00,,---,0.00,VWS V14.01,2013-01-19 06:18:00,
2013-01-19 00:23:00,44.1,25.1,30.22,SSW,194,5.4,5.4,47,0.00,,---,0.00,VWS V14.01,2013-01-19 06:23:00,
2013-01-19 00:28:00,43.7,25.3,30.22,SSW,195,5.4,5.4,48,0.00,,---,0.00,VWS V14.01,2013-01-19 06:28:00,
2013-01-19 00:33:00,43.5,25.1,30.22,South,182,5.8,5.8,48,0.00,,---,0.00,VWS V14.01,2013-01-19 06:33:00,
2013-01-19 00:38:00,43.2,24.8,30.22,South,186,5.8,5.8,48,0.00,,---,0.00,VWS V14.01,2013-01-19 06:38:00,
2013-01-19 00:43:00,43.3,25.0,30.22,SSW,209,7.6,7.6,48,0.00,,---,0.00,VWS V14.01,2013-01-19 06:43:00,
2013-01-19 00:48:00,43.3,25.5,30.22,SSW,209,7.6,7.6,49,0.00,,---,0.00,VWS V14.01,2013-01-19 06:48:00,
2013-01-19 00:53:00,43.3,26.0,30.22,SSW,209,7.6,7.6,50,0.00,,---,0.00,VWS V14.01,2013-01-19 06:53:00,
2013-01-19 00:58:00,43.5,26.6,30.22,SSW,209,7.6,7.6,51,0.00,,---,0.00,VWS V14.01,2013-01-19 06:58:00,
2013-01-19 01:03:00,43.3,26.9,30.22,South,182,7.6,7.6,52,0.00,,---,0.00,VWS V14.01,2013-01-19 07:03:00,
2013-01-19 01:08:00,43.3,27.4,30.22,South,182,7.6,7.6,53,0.00,,---,0.00,VWS V14.01,2013-01-19 07:08:00,
2013-01-19 01:13:00,43.5,28.0,30.22,South,180,6.7,6.7,54,0.00,,---,0.00,VWS V14.01,2013-01-19 07:13:00,
2013-01-19 01:18:00,43.3,27.8,30.22,SW,217,6.7,6.7,54,0.00,,---,0.00,VWS V14.01,2013-01-19 07:18:00,
2013-01-19 01:23:00,43.3,28.3,30.22,SSW,198,6.3,6.3,55,0.00,,---,0.00,VWS V14.01,2013-01-19 07:23:00,
2013-01-19 01:28:00,43.3,28.3,30.22,WSW,239,8.7,8.7,55,0.00,,---,0.00,VWS V14.01,2013-01-19 07:28:00,
2013-01-19 01:33:00,43.0,28.4,30.22,SSW,207,6.3,6.3,56,0.00,,---,0.00,VWS V14.01,2013-01-19 07:33:00,
2013-01-19 01:38:00,43.0,28.4,30.22,South,182,8.3,8.3,56,0.00,,---,0.00,VWS V14.01,2013-01-19 07:38:00,
2013-01-19 01:43:00,42.6,28.5,30.22,South,182,8.3,8.3,57,0.00,,---,0.00,VWS V14.01,2013-01-19 07:43:00,
2013-01-19 01:48:00,42.4,28.7,30.22,South,189,6.3,6.3,58,0.00,,---,0.00,VWS V14.01,2013-01-19 07:48:00,
2013-01-19 01:53:00,42.4,28.7,30.22,South,182,5.8,5.8,58,0.00,,---,0.00,VWS V14.01,2013-01-19 07:53:00,
2013-01-19 01:58:00,42.3,29.0,30.22,South,182,5.8,5.8,59,0.00,,---,0.00,VWS V14.01,2013-01-19 07:58:00,
2013-01-19 02:03:00,42.3,29.4,30.22,South,182,5.8,5.8,60,0.00,,---,0.00,VWS V14.01,2013-01-19 08:03:00,
2013-01-19 02:08:00,42.1,29.6,30.22,SSW,203,8.1,8.1,61,0.00,,---,0.00,VWS V14.01,2013-01-19 08:08:00,
2013-01-19 02:13:00,41.9,29.5,30.22,SSW,203,8.1,8.1,61,0.00,,---,0.00,VWS V14.01,2013-01-19 08:13:00,
2013-01-19 02:18:00,41.7,29.7,30.19,SSW,192,10.5,10.5,62,0.00,,---,0.00,VWS V14.01,2013-01-19 08:18:00,
2013-01-19 02:23:00,41.5,29.5,30.19,SW,223,6.7,6.7,62,0.00,,---,0.00,VWS V14.01,2013-01-19 08:23:00,
2013-01-19 02:28:00,41.4,29.7,30.19,SW,223,6.7,6.7,63,0.00,,---,0.00,VWS V14.01,2013-01-19 08:28:00,
2013-01-19 02:33:00,41.4,29.7,30.19,SW,223,6.7,6.7,63,0.00,,---,0.00,VWS V14.01,2013-01-19 08:33:00,
2013-01-19 02:38:00,41.2,29.9,30.19,SW,223,6.7,6.7,64,0.00,,---,0.00,VWS V14.01,2013-01-19 08:38:00,
2013-01-19 02:43:00,41.0,29.8,30.19,SSW,194,8.1,8.1,64,0.00,,---,0.00,VWS V14.01,2013-01-19 08:43:00,
2013-01-19 02:48:00,40.8,30.0,30.19,SSW,194,8.1,8.1,65,0.00,,---,0.00,VWS V14.01,2013-01-19 08:48:00,
2013-01-19 02:53:00,40.6,29.8,30.19,SW,215,8.7,8.7,65,0.00,,---,0.00,VWS V14.01,2013-01-19 08:53:00,
2013-01-19 02:58:00,40.8,30.4,30.19,SSW,205,8.3,8.3,66,0.00,,---,0.00,VWS V14.01,2013-01-19 08:58:00,
2013-01-19 03:03:00,41.0,30.9,30.19,South,186,7.6,7.6,67,0.00,,---,0.00,VWS V14.01,2013-01-19 09:03:00,
2013-01-19 03:08:00,41.2,31.4,30.19,South,186,7.6,7.6,68,0.00,,---,0.00,VWS V14.01,2013-01-19 09:08:00,
2013-01-19 03:13:00,41.5,32.1,30.19,South,186,7.6,7.6,69,0.00,,---,0.00,VWS V14.01,2013-01-19 09:13:00,
2013-01-19 03:18:00,41.5,32.5,30.19,SSW,194,7.6,7.6,70,0.00,,---,0.00,VWS V14.01,2013-01-19 09:18:00,
2013-01-19 03:23:00,41.7,32.7,30.19,SSW,194,7.6,7.6,70,0.00,,---,0.00,VWS V14.01,2013-01-19 09:23:00,
2013-01-19 03:28:00,42.1,33.4,30.19,SSW,197,7.2,7.2,71,0.00,,---,0.00,VWS V14.01,2013-01-19 09:28:00,
2013-01-19 03:33:00,42.1,33.7,30.19,SSW,192,10.1,10.1,72,0.00,,---,0.00,VWS V14.01,2013-01-19 09:33:00,
2013-01-19 03:38:00,42.3,33.9,30.19,SSW,192,10.1,10.1,72,0.00,,---,0.00,VWS V14.01,2013-01-19 09:38:00,
2013-01-19 03:43:00,42.3,33.9,30.19,SSW,195,8.3,8.3,72,0.00,,---,0.00,VWS V14.01,2013-01-19 09:43:00,
2013-01-19 03:48:00,42.1,33.7,30.16,SSW,207,8.1,8.1,72,0.00,,---,0.00,VWS V14.01,2013-01-19 09:48:00,
2013-01-19 03:53:00,42.1,33.7,30.16,SSW,207,8.1,8.1,72,0.00,,---,0.00,VWS V14.01,2013-01-19 09:53:00,
2013-01-19 03:58:00,41.9,33.9,30.16,South,172,6.3,6.3,73,0.00,,---,0.00,VWS V14.01,2013-01-19 09:58:00,
2013-01-19 04:03:00,41.7,33.7,30.16,South,179,6.3,6.3,73,0.00,,---,0.00,VWS V14.01,2013-01-19 10:03:00,
2013-01-19 04:08:00,41.7,33.7,30.16,South,179,6.3,6.3,73,0.00,,---,0.00,VWS V14.01,2013-01-19 10:08:00,
2013-01-19 04:13:00,41.5,33.5,30.16,South,190,6.3,6.3,73,0.00,,---,0.00,VWS V14.01,2013-01-19 10:13:00,
2013-01-19 04:18:00,41.0,33.0,30.16,South,179,6.3,6.3,73,0.00,,---,0.00,VWS V14.01,2013-01-19 10:18:00,
2013-01-19 04:23:00,40.6,32.7,30.16,South,182,5.8,5.8,73,0.00,,---,0.00,VWS V14.01,2013-01-19 10:23:00,
2013-01-19 04:28:00,40.6,32.7,30.16,South,187,6.3,6.3,73,0.00,,---,0.00,VWS V14.01,2013-01-19 10:28:00,
2013-01-19 04:33:00,40.6,32.7,30.16,SSW,197,5.8,8.1,73,0.00,,---,0.00,VWS V14.01,2013-01-19 10:33:00,
2013-01-19 04:38:00,40.6,32.7,30.16,South,179,8.1,8.1,73,0.00,,---,0.00,VWS V14.01,2013-01-19 10:38:00,
2013-01-19 04:43:00,40.6,32.7,30.16,South,179,8.1,8.1,73,0.00,,---,0.00,VWS V14.01,2013-01-19 10:43:00,
2013-01-19 04:48:00,40.6,32.7,30.16,SSW,209,7.2,7.2,73,0.00,,---,0.00,VWS V14.01,2013-01-19 10:48:00,
2013-01-19 04:53:00,40.6,32.7,30.16,South,170,5.4,5.4,73,0.00,,---,0.00,VWS V14.01,2013-01-19 10:53:00,
2013-01-19 04:58:00,40.6,32.7,30.16,South,189,6.3,6.3,73,0.00,,---,0.00,VWS V14.01,2013-01-19 10:58:00,
2013-01-19 05:03:00,40.6,32.7,30.16,South,185,8.3,8.3,73,0.00,,---,0.00,VWS V14.01,2013-01-19 11:03:00,
2013-01-19 05:08:00,40.6,32.7,30.16,SSW,194,5.8,5.8,73,0.00,,---,0.00,VWS V14.01,2013-01-19 11:08:00,
2013-01-19 05:13:00,40.6,32.7,30.16,South,187,8.1,8.1,73,0.00,,---,0.00,VWS V14.01,2013-01-19 11:13:00,
2013-01-19 06:47:00,40.6,32.7,30.16,SSW,210,5.8,5.8,73,0.00,,---,0.00,VWS V14.01,2013-01-19 12:47:00,
2013-01-19 06:48:00,40.6,32.7,30.16,SSW,210,5.8,5.8,73,0.00,,---,0.00,VWS V14.01,2013-01-19 12:48:00,
2013-01-19 06:53:00,40.6,32.7,30.16,South,189,5.8,5.8,73,0.00,,---,0.00,VWS V14.01,2013-01-19 12:53:00,
2013-01-19 06:58:00,40.6,32.7,30.16,South,189,5.8,5.8,73,0.00,,---,0.00,VWS V14.01,2013-01-19 12:58:00,
2013-01-19 07:03:00,40.6,32.7,30.16,South,184,4.9,4.9,73,0.00,,---,0.00,VWS V14.01,2013-01-19 13:03:00,
2013-01-19 07:08:00,40.6,32.7,30.16,SSW,197,5.8,5.8,73,0.00,,---,0.00,VWS V14.01,2013-01-19 13:08:00,
2013-01-19 07:13:00,40.6,32.7,30.16,SSW,202,8.7,8.7,73,0.00,,---,0.00,VWS V14.01,2013-01-19 13:13:00,
2013-01-19 07:18:00,40.6,32.7,30.16,South,190,6.3,6.3,73,0.00,,---,0.00,VWS V14.01,2013-01-19 13:18:00,
2013-01-19 07:23:00,40.6,32.7,30.16,SW,218,7.2,7.2,73,0.00,,---,0.00,VWS V14.01,2013-01-19 13:23:00,
2013-01-19 07:28:00,40.6,32.7,30.16,SSW,205,6.3,6.3,73,0.00,,---,0.00,VWS V14.01,2013-01-19 13:28:00,
2013-01-19 07:33:00,40.6,32.7,30.16,South,188,8.3,8.3,73,0.00,,---,0.00,VWS V14.01,2013-01-19 13:33:00,
2013-01-19 07:38:00,40.6,32.7,30.16,SSW,195,8.7,8.7,73,0.00,,---,0.00,VWS V14.01,2013-01-19 13:38:00,
2013-01-19 07:43:00,40.6,32.7,30.16,SSW,199,8.1,8.1,73,0.00,,---,0.00,VWS V14.01,2013-01-19 13:43:00,
2013-01-19 07:48:00,40.6,32.7,30.16,SSW,200,8.3,8.3,73,0.00,,---,0.00,VWS V14.01,2013-01-19 13:48:00,
2013-01-19 07:53:00,40.6,32.7,30.16,SSW,207,7.6,7.6,73,0.00,,---,0.00,VWS V14.01,2013-01-19 13:53:00,
2013-01-19 07:58:00,40.6,32.7,30.16,SSW,206,9.2,9.2,73,0.00,,---,0.00,VWS V14.01,2013-01-19 13:58:00,
2013-01-19 08:03:00,40.6,32.7,30.16,SSW,207,8.3,8.3,73,0.00,,---,0.00,VWS V14.01,2013-01-19 14:03:00,
2013-01-19 08:08:00,40.6,32.7,30.16,SSW,195,5.8,5.8,73,0.00,,---,0.00,VWS V14.01,2013-01-19 14:08:00,
2013-01-19 08:13:00,40.6,32.7,30.16,SW,219,5.8,5.8,73,0.00,,---,0.00,VWS V14.01,2013-01-19 14:13:00,
2013-01-19 08:18:00,40.6,32.7,30.19,SW,217,7.6,7.6,73,0.00,,---,0.00,VWS V14.01,2013-01-19 14:18:00,
2013-01-19 08:23:00,40.6,32.7,30.19,SW,220,8.3,8.3,73,0.00,,---,0.00,VWS V14.01,2013-01-19 14:23:00,
2013-01-19 08:28:00,40.6,32.7,30.19,SSW,196,7.6,7.6,73,0.00,,---,0.00,VWS V14.01,2013-01-19 14:28:00,
2013-01-19 08:33:00,40.6,32.7,30.19,SSW,194,8.3,8.3,73,0.00,,---,0.00,VWS V14.01,2013-01-19 14:33:00,
2013-01-19 08:38:00,40.6,32.7,30.19,SSW,201,8.1,8.1,73,0.00,,---,0.00,VWS V14.01,2013-01-19 14:38:00,
2013-01-19 08:43:00,40.6,32.7,30.19,SSW,205,5.8,8.7,73,0.00,,---,0.00,VWS V14.01,2013-01-19 14:43:00,
2013-01-19 08:48:00,40.6,32.7,30.19,SSW,205,5.8,5.8,73,0.00,,---,0.00,VWS V14.01,2013-01-19 14:48:00,
2013-01-19 08:53:00,40.6,32.7,30.19,SSW,192,7.6,7.6,73,0.00,,---,0.00,VWS V14.01,2013-01-19 14:53:00,
2013-01-19 08:58:00,40.6,32.7,30.19,SSW,199,8.3,8.3,73,0.00,,---,0.00,VWS V14.01,2013-01-19 14:58:00,
2013-01-19 09:03:00,40.6,32.7,30.19,South,187,10.1,10.1,73,0.00,,---,0.00,VWS V14.01,2013-01-19 15:03:00,
2013-01-19 09:08:00,40.6,32.7,30.19,SSW,197,10.5,10.5,73,0.00,,---,0.00,VWS V14.01,2013-01-19 15:08:00,
2013-01-19 09:13:00,40.6,32.7,30.19,South,187,8.3,8.3,73,0.00,,---,0.00,VWS V14.01,2013-01-19 15:13:00,
2013-01-19 09:18:00,40.6,32.7,30.19,SSW,195,8.1,8.1,73,0.00,,---,0.00,VWS V14.01,2013-01-19 15:18:00,
2013-01-19 09:23:00,40.6,32.7,30.19,SSW,192,8.1,8.1,73,0.00,,---,0.00,VWS V14.01,2013-01-19 15:23:00,
2013-01-19 09:28:00,40.6,32.7,30.19,SW,227,8.1,8.1,73,0.00,,---,0.00,VWS V14.01,2013-01-19 15:28:00,
2013-01-19 09:33:00,40.6,32.7,30.19,SSW,192,8.3,8.3,73,0.00,,---,0.00,VWS V14.01,2013-01-19 15:33:00,
2013-01-19 09:38:00,40.6,32.7,30.19,SW,220,10.5,10.5,73,0.00,,---,0.00,VWS V14.01,2013-01-19 15:38:00,
2013-01-19 09:43:00,40.6,32.7,30.19,SSW,207,9.6,9.6,73,0.00,,---,0.00,VWS V14.01,2013-01-19 15:43:00,
2013-01-19 09:48:00,40.6,32.7,30.22,SSW,203,5.8,5.8,73,0.00,,---,0.00,VWS V14.01,2013-01-19 15:48:00,
2013-01-19 09:53:00,40.6,32.7,30.22,SSW,204,12.8,12.8,73,0.00,,---,0.00,VWS V14.01,2013-01-19 15:53:00,
2013-01-19 09:58:00,40.6,32.7,30.22,SW,216,8.1,8.1,73,0.00,,---,0.00,VWS V14.01,2013-01-19 15:58:00,
2013-01-19 10:03:00,40.6,32.7,30.22,SSW,204,9.6,9.6,73,0.00,,---,0.00,VWS V14.01,2013-01-19 16:03:00,
2013-01-19 10:08:00,40.6,32.7,30.22,South,178,8.1,8.1,73,0.00,,---,0.00,VWS V14.01,2013-01-19 16:08:00,
2013-01-19 10:13:00,40.6,32.7,30.22,SW,218,8.7,8.7,73,0.00,,---,0.00,VWS V14.01,2013-01-19 16:13:00,
2013-01-19 10:18:00,40.6,32.7,30.22,SW,225,11.0,11.0,73,0.00,,---,0.00,VWS V14.01,2013-01-19 16:18:00,
2013-01-19 10:23:00,40.6,32.7,30.22,SW,233,8.3,8.3,73,0.00,,---,0.00,VWS V14.01,2013-01-19 16:23:00,
2013-01-19 10:28:00,40.6,32.7,30.22,SW,233,8.3,8.3,73,0.00,,---,0.00,VWS V14.01,2013-01-19 16:28:00,
2013-01-19 10:33:00,40.6,32.7,30.22,SW,224,12.8,12.8,73,0.00,,---,0.00,VWS V14.01,2013-01-19 16:33:00,
2013-01-19 10:38:00,40.6,32.7,30.22,SSW,202,8.3,8.3,73,0.00,,---,0.00,VWS V14.01,2013-01-19 16:38:00,
2013-01-19 10:43:00,40.6,32.7,30.22,SSW,198,11.0,11.0,73,0.00,,---,0.00,VWS V14.01,2013-01-19 16:43:00,
2013-01-19 10:48:00,40.6,32.7,30.22,SSW,213,13.2,13.2,73,0.00,,---,0.00,VWS V14.01,2013-01-19 16:48:00,
2013-01-19 10:53:00,40.6,32.7,30.22,SW,227,15.0,15.0,73,0.00,,---,0.00,VWS V14.01,2013-01-19 16:53:00,
2013-01-19 10:58:00,40.6,32.7,30.22,SSW,202,8.3,8.3,73,0.00,,---,0.00,VWS V14.01,2013-01-19 16:58:00,
2013-01-19 11:03:00,54.3,41.2,30.22,SSW,208,13.2,13.2,61,0.00,,---,0.00,VWS V14.01,2013-01-19 17:03:00,
2013-01-19 11:08:00,54.3,41.2,30.22,SSW,204,8.3,10.5,61,0.00,,---,0.00,VWS V14.01,2013-01-19 17:08:00,
2013-01-19 11:13:00,54.3,41.2,30.22,SSW,204,8.3,8.3,61,0.00,,---,0.00,VWS V14.01,2013-01-19 17:13:00,
2013-01-19 11:18:00,54.3,41.2,30.19,SSW,196,11.0,11.0,61,0.00,,---,0.00,VWS V14.01,2013-01-19 17:18:00,
2013-01-19 11:23:00,54.3,41.2,30.19,SSW,196,11.0,11.0,61,0.00,,---,0.00,VWS V14.01,2013-01-19 17:23:00,
2013-01-19 11:28:00,54.3,41.2,30.19,SSW,210,15.4,15.4,61,0.00,,---,0.00,VWS V14.01,2013-01-19 17:28:00,
2013-01-19 11:33:00,54.3,41.2,30.19,SW,229,12.3,12.3,61,0.00,,---,0.00,VWS V14.01,2013-01-19 17:33:00,
2013-01-19 11:38:00,54.3,41.2,30.19,SW,229,8.3,8.3,61,0.00,,---,0.00,VWS V14.01,2013-01-19 17:38:00,
2013-01-19 11:44:00,54.3,41.2,30.19,SSW,204,8.1,8.1,61,0.00,,---,0.00,VWS V14.01,2013-01-19 17:44:00,
2013-01-19 11:49:00,54.3,41.2,30.19,SW,225,11.4,11.4,61,0.00,,---,0.00,VWS V14.01,2013-01-19 17:49:00,
2013-01-19 11:54:00,54.3,41.2,30.19,SW,227,10.1,10.1,61,0.00,,---,0.00,VWS V14.01,2013-01-19 17:54:00,
2013-01-19 11:59:00,57.2,39.2,30.19,SW,218,13.2,13.2,51,0.00,,---,0.00,VWS V14.01,2013-01-19 17:59:00,
2013-01-19 12:04:00,57.2,39.2,30.19,SW,220,8.1,8.1,51,0.00,,---,0.00,VWS V14.01,2013-01-19 18:04:00,
2013-01-19 12:09:00,57.2,39.2,30.19,SSW,211,8.3,8.3,51,0.00,,---,0.00,VWS V14.01,2013-01-19 18:09:00,
2013-01-19 12:14:00,57.2,39.2,30.19,WSW,241,8.7,15.0,51,0.00,,---,0.00,VWS V14.01,2013-01-19 18:14:00,
2013-01-19 12:19:00,57.2,39.2,30.19,SW,231,7.6,7.6,51,0.00,,---,0.00,VWS V14.01,2013-01-19 18:19:00,
2013-01-19 12:24:00,57.2,39.2,30.19,SW,222,10.1,10.1,51,0.00,,---,0.00,VWS V14.01,2013-01-19 18:24:00,
2013-01-19 12:29:00,57.2,39.2,30.19,SW,225,8.3,8.3,51,0.00,,---,0.00,VWS V14.01,2013-01-19 18:29:00,
2013-01-19 12:34:00,59.5,38.2,30.16,SW,221,15.4,15.4,45,0.00,,---,0.00,VWS V14.01,2013-01-19 18:34:00,
2013-01-19 12:39:00,59.9,38.5,30.16,SW,223,18.3,18.3,45,0.00,,---,0.00,VWS V14.01,2013-01-19 18:39:00,
2013-01-19 12:45:00,61.2,39.1,30.16,South,183,5.4,18.3,44,0.00,,---,0.00,VWS V14.01,2013-01-19 18:45:00,
2013-01-19 12:50:00,61.2,39.1,30.16,SSW,206,6.3,6.3,44,0.00,,---,0.00,VWS V14.01,2013-01-19 18:50:00,
2013-01-19 12:55:00,62.6,39.2,30.16,WSW,239,6.3,6.3,42,0.00,,---,0.00,VWS V14.01,2013-01-19 18:55:00,
2013-01-19 13:00:00,62.6,39.2,30.13,SW,234,11.0,11.0,42,0.00,,---,0.00,VWS V14.01,2013-01-19 19:00:00,
2013-01-19 13:05:00,62.8,38.8,30.13,WSW,241,12.8,12.8,41,0.00,,---,0.00,VWS V14.01,2013-01-19 19:05:00,
2013-01-19 13:10:00,63.0,38.9,30.13,SW,222,8.3,8.3,41,0.00,,---,0.00,VWS V14.01,2013-01-19 19:10:00,
2013-01-19 13:15:00,63.0,38.9,30.13,SW,216,14.5,14.5,41,0.00,,---,0.00,VWS V14.01,2013-01-19 19:15:00,
2013-01-19 13:20:00,62.8,37.5,30.13,SSW,204,7.6,7.6,39,0.00,,---,0.00,VWS V14.01,2013-01-19 19:20:00,
2013-01-19 13:25:00,62.8,37.5,30.13,SW,228,13.2,13.2,39,0.00,,---,0.00,VWS V14.01,2013-01-19 19:25:00,
2013-01-19 13:30:00,62.4,37.2,30.13,WSW,250,10.1,10.1,39,0.00,,---,0.00,VWS V14.01,2013-01-19 19:30:00,
2013-01-19 13:35:00,62.4,37.2,30.13,SSW,193,13.2,13.2,39,0.00,,---,0.00,VWS V14.01,2013-01-19 19:35:00,
2013-01-19 13:40:00,62.2,37.0,30.13,SSW,205,14.5,14.5,39,0.00,,---,0.00,VWS V14.01,2013-01-19 19:40:00,
2013-01-19 13:45:00,62.2,36.3,30.13,SW,223,12.3,12.3,38,0.00,,---,0.00,VWS V14.01,2013-01-19 19:45:00,
2013-01-19 13:50:00,62.2,37.0,30.13,SW,215,8.3,13.2,39,0.00,,---,0.00,VWS V14.01,2013-01-19 19:50:00,
2013-01-19 13:55:00,62.1,36.2,30.13,South,184,10.5,10.5,38,0.00,,---,0.00,VWS V14.01,2013-01-19 19:55:00,
2013-01-19 14:01:00,62.2,37.0,30.13,SSW,196,10.1,10.5,39,0.00,,---,0.00,VWS V14.01,2013-01-19 20:01:00,
2013-01-19 14:06:00,62.2,37.0,30.13,West,260,7.6,8.7,39,0.00,,---,0.00,VWS V14.01,2013-01-19 20:06:00,
2013-01-19 14:11:00,62.2,37.0,30.13,SW,219,5.8,5.8,39,0.00,,---,0.00,VWS V14.01,2013-01-19 20:11:00,
2013-01-19 14:16:00,62.6,36.7,30.10,SSW,202,12.3,12.3,38,0.00,,---,0.00,VWS V14.01,2013-01-19 20:16:00,
2013-01-19 14:21:00,62.8,36.8,30.10,SW,225,5.8,8.1,38,0.00,,---,0.00,VWS V14.01,2013-01-19 20:21:00,
2013-01-19 14:26:00,62.6,36.7,30.10,SW,224,8.3,8.3,38,0.00,,---,0.00,VWS V14.01,2013-01-19 20:26:00,
2013-01-19 14:32:00,63.0,37.0,30.10,SW,228,5.4,10.1,38,0.00,,---,0.00,VWS V14.01,2013-01-19 20:32:00,
2013-01-19 14:37:00,63.0,36.3,30.10,SSW,209,6.3,8.3,37,0.00,,---,0.00,VWS V14.01,2013-01-19 20:37:00,
2013-01-19 14:42:00,63.1,36.5,30.10,SSW,202,5.4,5.4,37,0.00,,---,0.00,VWS V14.01,2013-01-19 20:42:00,
2013-01-19 14:47:00,63.0,36.3,30.10,SSW,204,8.1,8.7,37,0.00,,---,0.00,VWS V14.01,2013-01-19 20:47:00,
2013-01-19 14:52:00,63.1,37.1,30.10,SW,221,8.7,8.7,38,0.00,,---,0.00,VWS V14.01,2013-01-19 20:52:00,
2013-01-19 14:57:00,63.1,37.1,30.10,SSW,202,4.0,4.0,38,0.00,,---,0.00,VWS V14.01,2013-01-19 20:57:00,
2013-01-19 15:02:00,62.6,36.7,30.10,South,178,8.1,8.1,38,0.00,,---,0.00,VWS V14.01,2013-01-19 21:02:00,
2013-01-19 15:07:00,62.6,36.7,30.10,SW,224,8.3,8.3,38,0.00,,---,0.00,VWS V14.01,2013-01-19 21:07:00,
2013-01-19 15:12:00,62.4,36.5,30.10,South,187,8.1,8.1,38,0.00,,---,0.00,VWS V14.01,2013-01-19 21:12:00,
2013-01-19 15:18:00,62.6,36.0,30.10,WSW,240,11.0,11.0,37,0.00,,---,0.00,VWS V14.01,2013-01-19 21:18:00,
2013-01-19 15:23:00,62.6,36.0,30.10,SW,227,5.8,5.8,37,0.00,,---,0.00,VWS V14.01,2013-01-19 21:23:00,
2013-01-19 15:28:00,63.3,36.6,30.10,South,191,10.1,10.1,37,0.00,,---,0.00,VWS V14.01,2013-01-19 21:28:00,
2013-01-19 15:33:00,63.5,36.8,30.10,SSW,201,10.1,10.1,37,0.00,,---,0.00,VWS V14.01,2013-01-19 21:33:00,
2013-01-19 15:39:00,63.5,36.8,30.10,South,188,9.6,9.6,37,0.00,,---,0.00,VWS V14.01,2013-01-19 21:39:00,
2013-01-19 15:44:00,63.5,36.8,30.10,SSW,202,11.0,11.0,37,0.00,,---,0.00,VWS V14.01,2013-01-19 21:44:00,
2013-01-19 15:49:00,63.1,35.8,30.10,WSW,239,10.1,10.1,36,0.00,,---,0.00,VWS V14.01,2013-01-19 21:49:00,
2013-01-19 15:54:00,62.6,35.3,30.10,SW,223,5.4,8.1,36,0.00,,---,0.00,VWS V14.01,2013-01-19 21:54:00,
2013-01-19 15:59:00,62.6,35.3,30.10,SSW,203,7.2,8.3,36,0.00,,---,0.00,VWS V14.01,2013-01-19 21:59:00,
2013-01-19 16:05:00,63.0,36.3,30.10,SW,223,5.8,5.8,37,0.00,,---,0.00,VWS V14.01,2013-01-19 22:05:00,
2013-01-19 16:10:00,63.0,36.3,30.10,SSW,195,8.1,8.1,37,0.00,,---,0.00,VWS V14.01,2013-01-19 22:10:00,
2013-01-19 16:15:00,62.2,35.7,30.10,SSW,204,5.4,5.4,37,0.00,,---,0.00,VWS V14.01,2013-01-19 22:15:00,
2013-01-19 16:20:00,61.9,35.3,30.10,SW,215,8.1,8.1,37,0.00,,---,0.00,VWS V14.01,2013-01-19 22:20:00,
2013-01-19 16:25:00,61.7,35.2,30.10,SSW,210,6.3,6.3,37,0.00,,---,0.00,VWS V14.01,2013-01-19 22:25:00,
2013-01-19 16:30:00,61.7,35.2,30.10,South,187,8.1,8.1,37,0.00,,---,0.00,VWS V14.01,2013-01-19 22:30:00,
2013-01-19 16:35:00,61.7,35.2,30.10,SSW,211,5.4,5.8,37,0.00,,---,0.00,VWS V14.01,2013-01-19 22:35:00,
2013-01-19 16:40:00,61.7,35.2,30.10,SW,227,4.0,4.0,37,0.00,,---,0.00,VWS V14.01,2013-01-19 22:40:00,
2013-01-19 16:45:00,61.5,35.0,30.10,SW,214,5.4,5.4,37,0.00,,---,0.00,VWS V14.01,2013-01-19 22:45:00,
2013-01-19 16:50:00,61.5,35.0,30.10,SSW,211,4.5,4.5,37,0.00,,---,0.00,VWS V14.01,2013-01-19 22:50:00,
2013-01-19 16:55:00,61.5,35.0,30.10,South,183,3.6,4.0,37,0.00,,---,0.00,VWS V14.01,2013-01-19 22:55:00,
2013-01-19 17:00:00,61.7,35.2,30.10,SSW,213,3.6,8.1,37,0.00,,---,0.00,VWS V14.01,2013-01-19 23:00:00,
2013-01-19 17:05:00,61.7,35.2,30.10,WSW,253,6.3,6.3,37,0.00,,---,0.00,VWS V14.01,2013-01-19 23:05:00,
2013-01-19 17:10:00,61.7,35.2,30.10,South,180,5.4,5.4,37,0.00,,---,0.00,VWS V14.01,2013-01-19 23:10:00,
2013-01-19 17:15:00,61.7,35.2,30.10,SSW,204,6.3,6.3,37,0.00,,---,0.00,VWS V14.01,2013-01-19 23:15:00,
2013-01-19 17:20:00,61.3,34.9,30.10,SW,218,3.6,4.9,37,0.00,,---,0.00,VWS V14.01,2013-01-19 23:20:00,
2013-01-19 17:25:00,60.8,34.4,30.10,SSW,207,5.8,5.8,37,0.00,,---,0.00,VWS V14.01,2013-01-19 23:25:00,
2013-01-19 17:30:00,60.6,34.2,30.10,SW,218,4.0,4.0,37,0.00,,---,0.00,VWS V14.01,2013-01-19 23:30:00,
2013-01-19 17:35:00,59.9,34.2,30.10,SW,227,4.0,4.0,38,0.00,,---,0.00,VWS V14.01,2013-01-19 23:35:00,
2013-01-19 17:41:00,59.9,34.2,30.10,SSW,213,5.8,8.3,38,0.00,,---,0.00,VWS V14.01,2013-01-19 23:41:00,
2013-01-19 17:46:00,59.4,33.8,30.10,South,190,3.6,4.9,38,0.00,,---,0.00,VWS V14.01,2013-01-19 23:46:00,
2013-01-19 17:51:00,59.0,33.5,30.10,SSW,193,3.1,3.1,38,0.00,,---,0.00,VWS V14.01,2013-01-19 23:51:00,
2013-01-19 17:56:00,59.0,33.5,30.10,SW,224,6.7,6.7,38,0.00,,---,0.00,VWS V14.01,2013-01-19 23:56:00,
2013-01-19 18:01:00,59.0,33.5,30.10,SSW,200,5.4,5.4,38,0.00,,---,0.00,VWS V14.01,2013-01-20 00:01:00,
2013-01-19 18:06:00,57.9,33.1,30.10,SSW,203,2.7,2.7,39,0.00,,---,0.00,VWS V14.01,2013-01-20 00:06:00,
2013-01-19 18:11:00,57.4,33.3,30.10,SSW,201,3.1,3.1,40,0.00,,---,0.00,VWS V14.01,2013-01-20 00:11:00,
2013-01-19 18:16:00,57.0,33.0,30.10,South,180,5.8,5.8,40,0.00,,---,0.00,VWS V14.01,2013-01-20 00:16:00,
2013-01-19 18:22:00,56.8,33.4,30.10,South,177,3.6,3.6,41,0.00,,---,0.00,VWS V14.01,2013-01-20 00:22:00,
2013-01-19 18:27:00,56.8,33.4,30.10,South,189,3.1,4.0,41,0.00,,---,0.00,VWS V14.01,2013-01-20 00:27:00,
2013-01-19 18:32:00,56.3,32.9,30.10,SSW,200,3.6,3.6,41,0.00,,---,0.00,VWS V14.01,2013-01-20 00:32:00,
2013-01-19 18:37:00,55.9,33.2,30.10,SSW,199,4.0,4.0,42,0.00,,---,0.00,VWS V14.01,2013-01-20 00:37:00,
2013-01-19 18:42:00,55.8,33.0,30.10,SSW,211,4.0,4.0,42,0.00,,---,0.00,VWS V14.01,2013-01-20 00:42:00,
2013-01-19 18:47:00,55.6,32.9,30.10,SSW,196,4.0,4.0,42,0.00,,---,0.00,VWS V14.01,2013-01-20 00:47:00,
2013-01-19 18:52:00,55.6,32.9,30.10,SSW,193,4.9,4.9,42,0.00,,---,0.00,VWS V14.01,2013-01-20 00:52:00,
2013-01-19 18:57:00,54.9,32.8,30.10,South,183,4.0,4.0,43,0.00,,---,0.00,VWS V14.01,2013-01-20 00:57:00,
2013-01-19 19:02:00,54.9,32.8,30.10,SSW,193,4.0,4.0,43,0.00,,---,0.00,VWS V14.01,2013-01-20 01:02:00,
2013-01-19 19:07:00,54.7,33.2,30.10,South,186,4.5,4.5,44,0.00,,---,0.00,VWS V14.01,2013-01-20 01:07:00,
2013-01-19 19:12:00,54.7,33.2,30.10,South,188,4.9,4.9,44,0.00,,---,0.00,VWS V14.01,2013-01-20 01:12:00,
2013-01-19 19:18:00,54.7,33.8,30.13,South,190,4.9,4.9,45,0.00,,---,0.00,VWS V14.01,2013-01-20 01:18:00,
2013-01-19 19:23:00,54.5,33.6,30.13,South,190,4.9,4.9,45,0.00,,---,0.00,VWS V14.01,2013-01-20 01:23:00,
2013-01-19 19:28:00,54.3,33.5,30.13,SSW,208,3.1,5.8,45,0.00,,---,0.00,VWS V14.01,2013-01-20 01:28:00,
2013-01-19 19:33:00,53.8,33.0,30.13,SSW,194,6.3,6.3,45,0.00,,---,0.00,VWS V14.01,2013-01-20 01:33:00,
2013-01-19 19:38:00,53.8,33.5,30.13,SSW,193,5.4,5.4,46,0.00,,---,0.00,VWS V14.01,2013-01-20 01:38:00,
2013-01-19 19:43:00,53.8,33.5,30.13,SSW,202,5.4,5.4,46,0.00,,---,0.00,VWS V14.01,2013-01-20 01:43:00,
2013-01-19 19:48:00,53.8,33.5,30.13,SSW,194,5.4,5.8,46,0.00,,---,0.00,VWS V14.01,2013-01-20 01:48:00,
2013-01-19 19:53:00,53.6,33.3,30.13,SSW,208,5.4,5.4,46,0.00,,---,0.00,VWS V14.01,2013-01-20 01:53:00,
2013-01-19 19:58:00,53.6,33.3,30.13,South,187,4.0,4.0,46,0.00,,---,0.00,VWS V14.01,2013-01-20 01:58:00,
2013-01-19 20:03:00,53.6,33.3,30.13,SSW,193,5.4,5.4,46,0.00,,---,0.00,VWS V14.01,2013-01-20 02:03:00,
2013-01-19 20:08:00,53.4,33.7,30.13,South,183,5.4,5.4,47,0.00,,---,0.00,VWS V14.01,2013-01-20 02:08:00,
2013-01-19 20:13:00,53.2,33.5,30.13,South,190,5.4,5.4,47,0.00,,---,0.00,VWS V14.01,2013-01-20 02:13:00,
2013-01-19 20:18:00,53.2,33.5,30.13,SSW,194,5.8,5.8,47,0.00,,---,0.00,VWS V14.01,2013-01-20 02:18:00,
2013-01-19 20:23:00,53.1,33.4,30.13,SSW,207,5.4,5.8,47,0.00,,---,0.00,VWS V14.01,2013-01-20 02:23:00,
2013-01-19 20:29:00,53.1,33.4,30.13,SSW,197,5.4,5.4,47,0.00,,---,0.00,VWS V14.01,2013-01-20 02:29:00,
2013-01-19 20:34:00,53.1,33.4,30.13,South,188,4.0,5.8,47,0.00,,---,0.00,VWS V14.01,2013-01-20 02:34:00,
2013-01-19 20:39:00,53.1,33.4,30.13,SSW,207,5.4,5.8,47,0.00,,---,0.00,VWS V14.01,2013-01-20 02:39:00,
2013-01-19 20:44:00,53.1,33.4,30.16,SSW,210,4.9,4.9,47,0.00,,---,0.00,VWS V14.01,2013-01-20 02:44:00,
2013-01-19 20:49:00,52.7,33.0,30.16,SSW,196,4.5,4.5,47,0.00,,---,0.00,VWS V14.01,2013-01-20 02:49:00,
2013-01-19 20:54:00,52.7,33.0,30.16,SSW,196,5.8,6.3,47,0.00,,---,0.00,VWS V14.01,2013-01-20 02:54:00,
2013-01-19 20:59:00,52.7,33.0,30.16,SSW,200,5.8,5.8,47,0.00,,---,0.00,VWS V14.01,2013-01-20 02:59:00,
2013-01-19 21:04:00,52.5,32.9,30.16,SSW,200,7.2,7.2,47,0.00,,---,0.00,VWS V14.01,2013-01-20 03:04:00,
2013-01-19 21:09:00,52.3,32.7,30.16,South,189,4.9,5.4,47,0.00,,---,0.00,VWS V14.01,2013-01-20 03:09:00,
2013-01-19 21:14:00,52.0,32.4,30.16,SSW,198,5.8,5.8,47,0.00,,---,0.00,VWS V14.01,2013-01-20 03:14:00,
2013-01-19 21:19:00,52.0,32.4,30.16,SSW,197,6.3,6.3,47,0.00,,---,0.00,VWS V14.01,2013-01-20 03:19:00,
2013-01-19 21:24:00,52.0,32.4,30.16,SSW,206,5.8,5.8,47,0.00,,---,0.00,VWS V14.01,2013-01-20 03:24:00,
2013-01-19 21:29:00,52.0,32.4,30.16,South,187,5.8,5.8,47,0.00,,---,0.00,VWS V14.01,2013-01-20 03:29:00,
2013-01-19 21:34:00,51.8,32.2,30.16,SSW,197,5.4,5.4,47,0.00,,---,0.00,VWS V14.01,2013-01-20 03:34:00,
2013-01-19 21:39:00,51.6,32.6,30.13,SSW,196,4.9,4.9,48,0.00,,---,0.00,VWS V14.01,2013-01-20 03:39:00,
2013-01-19 21:44:00,51.4,32.4,30.13,SSW,197,4.9,4.9,48,0.00,,---,0.00,VWS V14.01,2013-01-20 03:44:00,
2013-01-19 21:49:00,51.6,32.6,30.13,South,189,4.0,5.4,48,0.00,,---,0.00,VWS V14.01,2013-01-20 03:49:00,
2013-01-19 21:54:00,51.6,32.6,30.13,SSW,199,4.0,4.0,48,0.00,,---,0.00,VWS V14.01,2013-01-20 03:54:00,
2013-01-19 21:59:00,51.3,32.3,30.16,SSW,194,4.0,4.0,48,0.00,,---,0.00,VWS V14.01,2013-01-20 03:59:00,
2013-01-19 22:04:00,51.3,32.3,30.16,South,187,3.6,3.6,48,0.00,,---,0.00,VWS V14.01,2013-01-20 04:04:00,
2013-01-19 22:09:00,51.1,32.6,30.16,South,183,4.0,4.0,49,0.00,,---,0.00,VWS V14.01,2013-01-20 04:09:00,
2013-01-19 22:14:00,51.1,32.6,30.16,South,191,5.4,5.4,49,0.00,,---,0.00,VWS V14.01,2013-01-20 04:14:00,
2013-01-19 22:19:00,51.3,32.8,30.16,South,180,6.3,6.3,49,0.00,,---,0.00,VWS V14.01,2013-01-20 04:19:00,
2013-01-19 22:24:00,51.3,32.8,30.16,SSW,192,5.4,5.4,49,0.00,,---,0.00,VWS V14.01,2013-01-20 04:24:00,
2013-01-19 22:29:00,51.3,32.8,30.16,South,188,5.4,5.4,49,0.00,,---,0.00,VWS V14.01,2013-01-20 04:29:00,
2013-01-19 22:34:00,51.3,32.8,30.16,SSW,196,5.8,5.8,49,0.00,,---,0.00,VWS V14.01,2013-01-20 04:34:00,
2013-01-19 22:39:00,51.3,32.8,30.16,SSW,192,4.9,4.9,49,0.00,,---,0.00,VWS V14.01,2013-01-20 04:39:00,
2013-01-19 22:45:00,51.3,32.8,30.16,SSW,203,4.5,4.5,49,0.00,,---,0.00,VWS V14.01,2013-01-20 04:45:00,
2013-01-19 22:50:00,51.1,32.6,30.16,SSW,212,4.5,4.5,49,0.00,,---,0.00,VWS V14.01,2013-01-20 04:50:00,
2013-01-19 22:55:00,51.1,32.6,30.16,SW,224,4.0,4.0,49,0.00,,---,0.00,VWS V14.01,2013-01-20 04:55:00,
2013-01-19 23:00:00,51.1,32.6,30.16,SSW,204,4.0,4.0,49,0.00,,---,0.00,VWS V14.01,2013-01-20 05:00:00,
2013-01-19 23:01:00,51.1,32.6,30.16,SSW,204,4.0,4.0,49,0.00,,---,0.00,VWS V14.01,2013-01-20 05:01:00,
2013-01-19 23:03:00,51.1,32.6,30.16,SSW,204,4.0,4.0,49,0.00,,---,0.00,VWS V14.01,2013-01-20 05:03:00,
2013-01-19 23:08:00,51.1,32.6,30.16,SSW,212,4.9,4.9,49,0.00,,---,0.00,VWS V14.01,2013-01-20 05:08:00,
2013-01-19 23:13:00,51.3,32.8,30.16,SSW,204,5.8,5.8,49,0.00,,---,0.00,VWS V14.01,2013-01-20 05:13:00,
2013-01-19 23:18:00,51.3,32.8,30.16,SSW,203,5.4,5.4,49,0.00,,---,0.00,VWS V14.01,2013-01-20 05:18:00,
2013-01-19 23:23:00,51.1,32.6,30.16,SSW,204,5.4,5.4,49,0.00,,---,0.00,VWS V14.01,2013-01-20 05:23:00,
2013-01-19 23:28:00,50.9,32.4,30.16,SW,216,5.8,5.8,49,0.00,,---,0.00,VWS V14.01,2013-01-20 05:28:00,
2013-01-19 23:33:00,50.7,32.3,30.16,SSW,211,6.3,6.3,49,0.00,,---,0.00,VWS V14.01,2013-01-20 05:33:00,
2013-01-19 23:38:00,50.5,32.1,30.16,SSW,208,4.0,4.0,49,0.00,,---,0.00,VWS V14.01,2013-01-20 05:38:00,
2013-01-19 23:43:00,50.5,32.1,30.16,SSW,208,4.0,4.0,49,0.00,,---,0.00,VWS V14.01,2013-01-20 05:43:00,
2013-01-19 23:48:00,50.5,32.1,30.16,SSW,206,5.8,5.8,49,0.00,,---,0.00,VWS V14.01,2013-01-20 05:48:00,
2013-01-19 23:53:00,50.4,31.9,30.16,SW,214,5.8,5.8,49,0.00,,---,0.00,VWS V14.01,2013-01-20 05:53:00,
2013-01-19 23:58:00,50.5,32.1,30.16,SW,214,5.8,5.8,49,0.00,,---,0.00,VWS V14.01,2013-01-20 05:58:00,